This is the latest recevied weather packets stored in our database for station/object N9EA. If no packets are shown the sender has not sent any weather packets the latest 10 day(s).
| Time | Temp. | Humidity | Pressure | Rain* | Wind** | Luminosity | Snow |
|---|---|---|---|---|---|---|---|
| 1778083496 | 12.22° C | 36% | 1015.3 hPa | 0 mm | - | 457 W/m² | - |
| 1778083193 | 13.33° C | 36% | 1015.3 hPa | 0 mm | - | 660 W/m² | - |
| 1778082891 | 12.78° C | 37% | 1015.3 hPa | 0 mm | - | 700 W/m² | - |
| 1778081777 | 12.22° C | 36% | 1015.4 hPa | 0 mm | - | 561 W/m² | - |
| 1778081474 | 11.67° C | 36% | 1015.4 hPa | 0 mm | - | 572 W/m² | - |
| 1778081171 | 11.67° C | 37% | 1015.3 hPa | 0 mm | - | 563 W/m² | - |
| 1778080869 | 11.67° C | 38% | 1015.2 hPa | 0 mm | - | 434 W/m² | - |
| 1778080567 | 11.67° C | 38% | 1015.2 hPa | 0 mm | - | 537 W/m² | - |
| 1778080264 | 11.11° C | 38% | 1015.3 hPa | 0 mm | - | 568 W/m² | - |
| 1778079961 | 11.67° C | 37% | 1015.3 hPa | 0 mm | - | 567 W/m² | - |
| 1778079657 | 10.56° C | 39% | 1015.3 hPa | 0 mm | - | 550 W/m² | - |
| 1778079355 | 10.56° C | 40% | 1015.3 hPa | 0 mm | - | 368 W/m² | - |
| 1778079052 | 10.56° C | 42% | 1015.4 hPa | 0 mm | - | 333 W/m² | - |
| 1778078748 | 10° C | 42% | 1015.2 hPa | 0 mm | - | 280 W/m² | - |
| 1778078445 | 10.56° C | 43% | 1015.3 hPa | 0 mm | - | 319 W/m² | - |
| 1778078143 | 10° C | 45% | 1015.3 hPa | 0 mm | - | 432 W/m² | - |
| 1778077841 | 9.44° C | 43% | 1015.4 hPa | 0 mm | - | 325 W/m² | - |
| 1778077539 | 9.44° C | 45% | 1015.2 hPa | 0 mm | - | 213 W/m² | - |
| 1778077237 | 9.44° C | 46% | 1015.2 hPa | 0 mm | - | 144 W/m² | - |
| 1778076934 | 9.44° C | 48% | 1015.1 hPa | 0 mm | - | 163 W/m² | - |
| 1778076633 | 8.89° C | 48% | 1015.1 hPa | 0 mm | - | 232 W/m² | - |
| 1778076330 | 8.89° C | 48% | 1015.3 hPa | 0 mm | - | 178 W/m² | - |
| 1778076027 | 8.89° C | 47% | 1015.2 hPa | 0 mm | - | 165 W/m² | - |
| 1778075724 | 8.89° C | 47% | 1015.2 hPa | 0 mm | - | 169 W/m² | - |
| 1778075420 | 8.89° C | 50% | 1014.9 hPa | 0 mm | - | 194 W/m² | - |
* Rain latest hour (hover to see other rain measurements)
** Current wind speed in m/s (hover to see current wind gust speed)